Hourly Weather Roundup
Issued by NWS Central Illinois

Home | Current Version | Previous Version | Text Only | Print | Product List | Glossary On
Versions: 1 2 3 4 5 6 7 8 9 10 11 12 13 14 15 16 17 18 19 20 21 22 23 24 25 26 27 28 29 30 31 32 33 34 35 36 37 38 39 40 41 42 43 44 45 46 47 48 49 50
000
NZUS43 KILX 240810
HWRILX

AREA WEATHER ROUNDUP
NATIONAL WEATHER SERVICE, LINCOLN IL
300 AM CDT WED AUG 24 2016


CITY           SKY/WX    TMP DP  RH WIND       PRES   REMARKS
BLOOMINGTON    PTCLDY    70  67  90 S12       30.09R
CHAMPAIGN      MOCLDY    70  65  84 S12       30.10F
DANVILLE       CLOUDY    69  64  81 S6        30.10S
DECATUR        CLOUDY    72  68  87 S10       30.09S
EFFINGHAM      PTCLDY    71  71 100 SE6       30.13S
FLORA          PTCLDY    71  70  96 S5        30.13S
GALESBURG      CLOUDY    71  69  93 S10       30.01F
JACKSONVILLE   CLOUDY    73  72  94 S8        30.04R
LACON          CLOUDY    70  67  88 S6        30.03F
LAWRENCEVILLE  CLEAR     68  66  93 S5        30.14S
LITCHFIELD     CLOUDY    73  69  89 S14       30.08F
$$


CITY           SKY/WX    TMP DP  RH WIND       PRES   REMARKS
LINCOLN        CLOUDY    72  71  95 S8        30.06S
MACOMB         CLOUDY    71  70  95 S12       30.03S
MATTOON        CLOUDY    70  65  84 S9        30.10F
MT CARMEL AP   PTCLDY    69  65  89 SE3       30.14S
OLNEY-NOBLE AP CLOUDY    68  68 100 SE3       30.13S
PARIS          CLOUDY    70  65  86 S5        30.13S
PEORIA         CLOUDY    72  69  90 S13       30.04S
PONTIAC        CLOUDY    71  68  92 S8        30.08S
RANTOUL        CLOUDY    70  67  88 S5        30.11R
ROBINSON       PTCLDY    68  65  90 S6        30.14S
SPRINGFIELD    CLOUDY    74  71  91 S12       30.05F
TAYLORVILLE    CLOUDY    72  70  95 S12       30.08F
$$

...REGIONAL REPORTS...


CITY           SKY/WX    TMP DP  RH WIND       PRES   REMARKS
CHICAGO O`HARE CLOUDY    73  64  73 S13G22    30.05S
KANKAKEE       PTCLDY    69  64  83 S7        30.10S
MOLINE         TSTM      72  69  90 SE12      29.97F FOG
MOUNT STERLING CLOUDY    71  70  97 S9        30.01S
MOUNT VERNON   CLOUDY    73  68  83 S7        30.13S
PITTSFIELD     CLOUDY    74  73  97 S7        30.04R
QUINCY         CLOUDY    75  74  96 S14       30.00R
ROCKFORD       CLOUDY    70  66  87 S15       30.02F
$$


CITY           SKY/WX    TMP DP  RH WIND       PRES   REMARKS
BURLINGTON     CLOUDY    73  72  96 S13       29.96F THUNDER
CEDAR RAPIDS   TSTM      72  72 100 S9        29.90F
DES MOINES     TSTM      71  68  90 W13       29.87S
KIRKSVILLE     MOCLDY    76  71  85 S13       29.96F
OTTUMWA        CLOUDY    75  71  87 S10       29.91F THUNDER
ST LOUIS       CLOUDY    76  72  87 S13       30.06F
$$


CITY           SKY/WX    TMP DP  RH WIND       PRES   REMARKS
TERRE HAUTE    CLOUDY    71  64  78 S6        30.13F
EVANSVILLE     CLEAR     72  66  81 CALM      30.15S
INDIANAPOLIS   CLOUDY    71  63  75 S8        30.14F
LAFAYETTE      CLOUDY    69  64  84 S3        30.13R
MADISON        CLOUDY    71  68  90 S16G23    29.94F
MILWAUKEE      MOCLDY    75  64  68 S14G23    30.00F
$$






USA.gov is the U.S. government's official web portal to all federal, state and local government web resources and services.